McGregor, TX

12:28 AM CDT on October 21, 2019 (GMT -0500)
McGregor Executive

Weather History for KPWG - September, 2019

Change the Weather History Date:

Monday, September 16, 2019

  Actual Average Record
Temperature  
Mean Temperature 84 °F -  
Max Temperature 98 °F 86 °F 98 °F (1997)
Min Temperature 71 °F 65 °F 51 °F (2008)
Cooling Degree Days 19    
Growing Degree Days 34 (Base 50)    
Moisture  
Dew Point 64 °F    
Average Humidity 53    
Maximum Humidity 78    
Minimum Humidity 33    
Precipitation  
Precipitation 0.00 in - - ()
Sea Level Pressure  
Sea Level Pressure 29.98 in    
Wind  
Wind Speed 4 mph ()    
Max Wind Speed 16 mph    
Max Gust Speed 22 mph    
Visibility 9.8 miles    
Events      
Averages and records for this station are not official NWS values.
T = Trace of Precipitation, MM = Missing Value Source: Averaged Metar Reports

Daily Weather History Graph

Daily Weather History Graph

Search for Another Location

Airport or City:

Astronomy

Sep. 16, 2019 Rise Set
Actual Time 7:13 AM CDT 7:33 PM CDT
Civil Twilight 6:49 AM CDT 7:58 PM CDT
Nautical Twilight 6:21 AM CDT 8:26 PM CDT
Astronomical Twilight 5:52 AM CDT 8:55 PM CDT
Moon 9:16 PM CDT (9/16) 9:16 AM CDT (9/16)
Length of Visible Light 13h 08m
Length of Day
12h 20m
Waning Gibbous, 94% of the Moon is Illuminated
Sep 16
Waning Gibbous
Sep 21
Last Quarter
Sep 28
New
Oct 5
First Quarter
Oct 13
Full

Hourly Weather History & Observations

Time (CDT) Temp. Heat Index Dew Point Humidity Pressure Visibility Wind Dir Wind Speed Gust Speed Precip Events Conditions
12:56 AM 81.0 °F 82.5 °F 64.0 °F 56% 30.01 in 10.0 mi Calm Calm - N/A   Clear
1:56 AM 77.0 °F - 63.0 °F 62% 30.01 in 10.0 mi Calm Calm - N/A   Clear
2:56 AM 75.0 °F - 63.0 °F 66% 30.01 in 10.0 mi West 3.5 mph - N/A   Partly Cloudy
3:56 AM 73.0 °F - 61.0 °F 66% 30.01 in 10.0 mi Calm Calm - N/A   Clear
4:56 AM 72.0 °F - 63.0 °F 73% 30.01 in 10.0 mi Calm Calm - N/A   Clear
5:56 AM 71.1 °F - 63.0 °F 75% 30.01 in 10.0 mi WNW 3.5 mph - N/A   Clear
6:56 AM 71.1 °F - 64.0 °F 78% 30.02 in 10.0 mi North 4.6 mph - N/A   Clear
7:56 AM 73.0 °F - 64.9 °F 76% 30.03 in 10.0 mi NW 3.5 mph - N/A   Clear
8:56 AM 79.0 °F - 66.9 °F 66% 30.04 in 10.0 mi NNE 3.5 mph - N/A   Clear
9:56 AM 84.9 °F 87.6 °F 66.9 °F 55% 30.04 in 10.0 mi North 8.1 mph - N/A   Clear
10:56 AM 90.0 °F 92.8 °F 66.9 °F 46% 30.04 in 10.0 mi NE 9.2 mph - N/A   Clear
11:56 AM 91.0 °F 94.3 °F 66.9 °F 45% 30.03 in 10.0 mi Variable 5.8 mph - N/A   Clear
12:56 PM 95.0 °F 99.0 °F 66.9 °F 40% 30.00 in 10.0 mi Variable 6.9 mph - N/A   Partly Cloudy
1:56 PM 95.0 °F 97.4 °F 64.9 °F 37% 29.97 in 10.0 mi East 9.2 mph 16.1 mph N/A   Partly Cloudy
2:56 PM 95.0 °F 97.4 °F 64.9 °F 37% 29.95 in 10.0 mi ENE 10.4 mph 16.1 mph N/A   Partly Cloudy
3:56 PM 97.0 °F 99.3 °F 64.0 °F 34% 29.92 in 10.0 mi ESE 6.9 mph - N/A   Partly Cloudy
4:56 PM 96.1 °F 97.3 °F 63.0 °F 33% 29.91 in 10.0 mi ENE 16.1 mph 21.9 mph N/A   Scattered Clouds
5:56 PM 95.0 °F 95.6 °F 62.1 °F 33% 29.91 in 10.0 mi East 11.5 mph - N/A   Clear
6:56 PM 93.0 °F 94.2 °F 63.0 °F 37% 29.91 in 10.0 mi East 11.5 mph - N/A   Clear
7:56 PM 90.0 °F 90.6 °F 63.0 °F 40% 29.92 in 10.0 mi East 8.1 mph - N/A   Clear
8:56 PM 86.0 °F 86.8 °F 63.0 °F 46% 29.93 in 6.0 mi East 5.8 mph - N/A   Haze
9:56 PM 84.0 °F 84.5 °F 62.1 °F 47% 29.95 in 10.0 mi SE 10.4 mph - N/A   Scattered Clouds
10:56 PM 82.0 °F 84.9 °F 68.0 °F 62% 29.95 in 10.0 mi SE 9.2 mph - N/A   Clear
11:56 PM 80.1 °F 82.7 °F 68.0 °F 67% 29.95 in 10.0 mi SSE 9.2 mph - N/A   Clear